This is the latest recevied weather packets stored in our database for station/object DB0FN-10. If no packets are shown the sender has not sent any weather packets the latest 10 day(s).
| Time | Temp. | Humidity | Pressure | Rain* | Wind** | Luminosity | Snow |
|---|---|---|---|---|---|---|---|
| 1787867237 | 30° C | 39% | 1017.2 hPa | - | - | - | - |
| 1787866337 | 30° C | 39% | 1017.3 hPa | - | - | - | - |
| 1787865437 | 30.56° C | 39% | 1017.4 hPa | - | - | - | - |
| 1787864537 | 30° C | 42% | 1017.4 hPa | - | - | - | - |
| 1787863637 | 30° C | 39% | 1017.3 hPa | - | - | - | - |
| 1787862737 | 30° C | 41% | 1017.4 hPa | - | - | - | - |
| 1787861837 | 30.56° C | 41% | 1017.6 hPa | - | - | - | - |
| 1787860937 | 30° C | 42% | 1017.5 hPa | - | - | - | - |
| 1787860037 | 31.11° C | 41% | 1017.6 hPa | - | - | - | - |
| 1787859137 | 31.11° C | 42% | 1017.3 hPa | - | - | - | - |
| 1787858237 | 30.56° C | 43% | 1017.3 hPa | - | - | - | - |
| 1787857337 | 30.56° C | 42% | 1017.3 hPa | - | - | - | - |
| 1787856437 | 31.11° C | 42% | 1017.5 hPa | - | - | - | - |
| 1787855537 | 31.11° C | 42% | 1017.4 hPa | - | - | - | - |
| 1787854636 | 31.11° C | 41% | 1017.6 hPa | - | - | - | - |
| 1787853736 | 31.11° C | 40% | 1017.4 hPa | - | - | - | - |
| 1787852836 | 31.11° C | 40% | 1017.6 hPa | - | - | - | - |
| 1787851936 | 31.11° C | 39% | 1017.5 hPa | - | - | - | - |
| 1787851036 | 31.67° C | 39% | 1017.5 hPa | - | - | - | - |
| 1787850136 | 31.67° C | 38% | 1017.6 hPa | - | - | - | - |
| 1787849236 | 32.22° C | 38% | 1017.9 hPa | - | - | - | - |
| 1787848336 | 31.67° C | 39% | 1017.9 hPa | - | - | - | - |
| 1787847436 | 31.67° C | 39% | 1017.7 hPa | - | - | - | - |
| 1787846536 | 31.67° C | 38% | 1017.8 hPa | - | - | - | - |
| 1787845636 | 32.22° C | 38% | 1017.8 hPa | - | - | - | - |
* Rain since midnight (hover to see other rain measurements)
** Current wind speed in m/s (hover to see current wind gust speed)